• In Czech Republic
  • List of Countries
  • For 7 days
  • Water Temperature
  • Satellite Maps
  • Weather Map
  • Weather Widgets
  • user-avatar
    Login

    Hourly Weather Starchiki

    Today, 16 November, Friday

    Time Temperature Precipitation Wind Pressure Humidity
    00:00 -6°C° 0 mm 3 mps 769 mmHg 31%
    01:00 -6°C° 0 mm 3 mps 770 mmHg 31%
    02:00 -6°C° 0 mm 3 mps 770 mmHg 31%
    03:00 -5°C° 0 mm 2 mps 770 mmHg 32%
    04:00 -5°C° 0 mm 2 mps 770 mmHg 31%
    05:00 -5°C° 0 mm 2 mps 771 mmHg 31%
    06:00 -7°C° 0 mm 3 mps 771 mmHg 30%
    07:00 -6°C° 0 mm 3 mps 771 mmHg 29%
    08:00 -6°C° 0 mm 3 mps 771 mmHg 27%
    09:00 -5°C° 0 mm 3 mps 771 mmHg 25%
    10:00 -4°C° 0 mm 3 mps 771 mmHg 23%
    11:00 -2°C° 0 mm 3 mps 772 mmHg 21%
    12:00 -1°C° 0 mm 3 mps 772 mmHg 19%
    13:00 -1°C° 0 mm 3 mps 771 mmHg 20%
    14:00 -1°C° 0 mm 3 mps 771 mmHg 21%
    15:00 -1°C° 0 mm 3 mps 771 mmHg 22%
    16:00 -1°C° 0 mm 3 mps 771 mmHg 23%
    17:00 -2°C° 0 mm 3 mps 771 mmHg 25%
    18:00 -4°C° 0 mm 3 mps 771 mmHg 26%
    19:00 -4°C° 0 mm 3 mps 771 mmHg 26%
    20:00 -4°C° 0 mm 3 mps 771 mmHg 26%
    21:00 -3°C° 0 mm 2 mps 771 mmHg 25%
    22:00 -4°C° 0 mm 2 mps 771 mmHg 25%
    23:00 -4°C° 0 mm 2 mps 771 mmHg 25%

    Tomorrow, 17 November, Saturday

    Time Temperature Precipitation Wind Pressure Humidity
    00:00 -4°C° 0 mm 2 mps 771 mmHg 25%
    01:00 -4°C° 0 mm 2 mps 771 mmHg 25%
    02:00 -4°C° 0 mm 2 mps 771 mmHg 24%
    03:00 -2°C° 0 mm 1 mps 771 mmHg 24%
    04:00 -2°C° 0 mm 1 mps 770 mmHg 24%
    05:00 -2°C° 0 mm 1 mps 770 mmHg 24%
    06:00 -2°C° 0 mm 1 mps 770 mmHg 24%
    07:00 -2°C° 0 mm 1 mps 769 mmHg 23%
    08:00 -2°C° 0 mm 1 mps 769 mmHg 22%
    09:00 -2°C° 0 mm 1 mps 769 mmHg 21%
    10:00 0°C° 0 mm 1 mps 769 mmHg 20%
    11:00 +1°C° 0 mm 1 mps 768 mmHg 18%
    12:00 +2°C° 0 mm 1 mps 768 mmHg 17%
    13:00 +2°C° 0 mm 1 mps 767 mmHg 18%
    14:00 +2°C° 0 mm 1 mps 767 mmHg 20%
    15:00 +2°C° 0 mm 1 mps 766 mmHg 22%
    16:00 +1°C° 0 mm 1 mps 765 mmHg 22%
    17:00 -2°C° 0 mm 2 mps 765 mmHg 23%
    18:00 -2°C° 0 mm 2 mps 764 mmHg 24%
    19:00 -3°C° 0 mm 2 mps 764 mmHg 24%
    20:00 -3°C° 0 mm 2 mps 763 mmHg 24%
    21:00 -3°C° 0 mm 2 mps 762 mmHg 24%
    22:00 -4°C° 0 mm 3 mps 762 mmHg 24%
    23:00 -4°C° 0 mm 3 mps 761 mmHg 24%

    Day after tomorrow, 18 November, Sunday

    Time Temperature Precipitation Wind Pressure Humidity
    00:00 -4°C° 0 mm 3 mps 760 mmHg 24%
    01:00 -4°C° 0 mm 3 mps 760 mmHg 24%
    02:00 -4°C° 0 mm 3 mps 759 mmHg 23%
    03:00 -4°C° 0 mm 4 mps 759 mmHg 23%
    04:00 -4°C° 0 mm 4 mps 758 mmHg 23%
    05:00 -4°C° 0 mm 4 mps 757 mmHg 23%
    06:00 -4°C° 0 mm 4 mps 756 mmHg 23%
    07:00 -4°C° 0 mm 4 mps 756 mmHg 22%
    08:00 -4°C° 0 mm 4 mps 756 mmHg 22%
    09:00 -4°C° 0 mm 4 mps 756 mmHg 22%
    10:00 -3°C° 0 mm 4 mps 755 mmHg 22%
    11:00 -2°C° 0 mm 4 mps 755 mmHg 22%
    12:00 -1°C° 0 mm 4 mps 755 mmHg 22%
    13:00 -1°C° 0 mm 4 mps 755 mmHg 24%
    14:00 0°C° 0 mm 3 mps 755 mmHg 27%
    15:00 0°C° 0 mm 3 mps 754 mmHg 29%
    16:00 -1°C° 0 mm 3 mps 754 mmHg 33%
    17:00 -2°C° 0 mm 3 mps 754 mmHg 37%
    18:00 -4°C° 0 mm 3 mps 754 mmHg 40%
    19:00 -4°C° 0 mm 3 mps 754 mmHg 42%
    20:00 -3°C° 0 mm 2 mps 755 mmHg 43%
    21:00 -3°C° 0 mm 2 mps 755 mmHg 45%
    22:00 -3°C° 0 mm 2 mps 755 mmHg 45%
    23:00 -3°C° 0 mm 2 mps 755 mmHg 46%

    19 November, Monday

    Time Temperature Precipitation Wind Pressure Humidity
    00:00 -4°C° 0 mm 2 mps 755 mmHg 47%
    01:00 -4°C° 0 mm 2 mps 756 mmHg 47%
    02:00 -4°C° 0 mm 2 mps 756 mmHg 48%
    03:00 -4°C° 0 mm 2 mps 756 mmHg 48%
    04:00 -4°C° 0 mm 2 mps 757 mmHg 49%
    05:00 -4°C° 0 mm 2 mps 757 mmHg 49%
    06:00 -4°C° 0 mm 2 mps 757 mmHg 49%
    07:00 -4°C° 0 mm 2 mps 757 mmHg 49%
    08:00 -4°C° 0 mm 2 mps 758 mmHg 48%
    09:00 -4°C° 0 mm 2 mps 758 mmHg 47%
    10:00 -3°C° 0 mm 2 mps 759 mmHg 44%
    11:00 -2°C° 0 mm 2 mps 759 mmHg 41%
    12:00 -1°C° 0 mm 2 mps 760 mmHg 38%
    13:00 -1°C° 0 mm 2 mps 760 mmHg 39%
    14:00 -1°C° 0 mm 2 mps 761 mmHg 39%
    15:00 -1°C° 0 mm 2 mps 761 mmHg 40%
    16:00 -1°C° 0 mm 2 mps 761 mmHg 42%
    17:00 -2°C° 0 mm 2 mps 761 mmHg 43%
    18:00 -4°C° 0 mm 3 mps 762 mmHg 45%
    19:00 -4°C° 0 mm 3 mps 762 mmHg 44%
    20:00 -4°C° 0 mm 3 mps 762 mmHg 43%
    21:00 -4°C° 0 mm 3 mps 763 mmHg 42%
    22:00 -4°C° 0 mm 3 mps 763 mmHg 41%
    23:00 -3°C° 0 mm 2 mps 763 mmHg 41%

    20 November, Tuesday

    Time Temperature Precipitation Wind Pressure Humidity
    00:00 -3°C° 0 mm 2 mps 764 mmHg 40%
    01:00 -3°C° 0 mm 2 mps 764 mmHg 40%
    02:00 -4°C° 0 mm 3 mps 764 mmHg 40%
    03:00 -4°C° 0 mm 3 mps 764 mmHg 39%
    04:00 -4°C° 0 mm 3 mps 764 mmHg 39%
    05:00 -5°C° 0 mm 3 mps 764 mmHg 38%
    06:00 -5°C° 0 mm 3 mps 764 mmHg 37%
    07:00 -5°C° 0 mm 3 mps 764 mmHg 36%
    08:00 -4°C° 0 mm 3 mps 764 mmHg 36%
    09:00 -4°C° 0 mm 3 mps 764 mmHg 35%
    10:00 -2°C° 0 mm 3 mps 764 mmHg 33%
    11:00 -2°C° 0 mm 3 mps 764 mmHg 32%
    12:00 -1°C° 0 mm 3 mps 763 mmHg 31%
    13:00 -1°C° 0 mm 3 mps 763 mmHg 32%
    14:00 -1°C° 0 mm 3 mps 763 mmHg 34%
    15:00 -1°C° 0 mm 3 mps 762 mmHg 35%
    16:00 -1°C° 0 mm 3 mps 762 mmHg 36%
    17:00 -2°C° 0 mm 3 mps 762 mmHg 38%
    18:00 -2°C° 0 mm 3 mps 761 mmHg 39%
    19:00 -2°C° 0 mm 3 mps 761 mmHg 40%
    20:00 -2°C° 0 mm 3 mps 761 mmHg 41%
    21:00 -2°C° 0 mm 3 mps 761 mmHg 41%
    22:00 -2°C° 0 mm 3 mps 760 mmHg 44%
    23:00 -2°C° 0 mm 3 mps 760 mmHg 47%

    21 November, Wednesday

    Time Temperature Precipitation Wind Pressure Humidity
    00:00 -2°C° 0 mm 3 mps 760 mmHg 50%
    01:00 -4°C° 0.5 mm 4 mps 759 mmHg 61%
    02:00 -4°C° 0.5 mm 4 mps 759 mmHg 73%
    03:00 -5°C° 0.5 mm 4 mps 759 mmHg 85%
    04:00 -5°C° 0.3 mm 4 mps 758 mmHg 87%
    05:00 -5°C° 0.3 mm 4 mps 758 mmHg 88%
    06:00 -5°C° 0.3 mm 3 mps 757 mmHg 90%
    07:00 -4°C° 0.1 mm 3 mps 757 mmHg 90%
    08:00 -4°C° 0.1 mm 3 mps 757 mmHg 90%
    09:00 -4°C° 0.1 mm 3 mps 757 mmHg 90%
    10:00 -3°C° 0 mm 2 mps 757 mmHg 89%
    11:00 -2°C° 0 mm 2 mps 756 mmHg 88%
    12:00 -2°C° 0 mm 2 mps 756 mmHg 86%
    13:00 -2°C° 0 mm 2 mps 756 mmHg 87%
    14:00 -2°C° 0 mm 2 mps 755 mmHg 87%
    15:00 -2°C° 0 mm 2 mps 755 mmHg 87%
    16:00 -2°C° 0 mm 2 mps 754 mmHg 88%
    17:00 -2°C° 0 mm 2 mps 754 mmHg 89%
    18:00 -2°C° 0 mm 2 mps 754 mmHg 91%
    19:00 -3°C° 0 mm 2 mps 754 mmHg 91%
    20:00 -3°C° 0 mm 2 mps 753 mmHg 92%
    21:00 -3°C° 0 mm 2 mps 753 mmHg 92%
    22:00 -3°C° 0 mm 2 mps 753 mmHg 92%
    23:00 -3°C° 0 mm 2 mps 753 mmHg 92%
    Show more